Date,TemperatureHighF,TemperatureAvgF,TemperatureLowF,DewpointHighF,DewpointAvgF,DewpointLowF,HumidityHigh,HumidityAvg,HumidityLow,PressureMaxIn,PressureMinIn,WindSpeedMaxMPH,WindSpeedAvgMPH,GustSpeedMaxMPH,PrecipitationSumIn
2013-1-1,32.6,31.2,29.7,31.4,29.6,28.2,96,94,93,30.47,30.34,6,2,8,0.05
2013-1-2,41.1,31.0,23.7,35.8,28.6,23.0,98,91,77,30.34,30.18,9,2,9,0.06
2013-1-3,39.6,31.9,21.5,35.9,27.4,19.3,91,84,65,30.19,30.10,14,3,14,0.03
2013-1-4,45.4,40.6,38.2,42.4,37.1,34.6,90,87,85,30.33,30.15,18,3,18,0.03
2013-1-5,40.0,37.8,35.5,35.7,34.2,32.0,91,87,82,30.19,30.11,15,4,15,0.00
2013-1-6,42.8,39.5,32.9,39.9,36.6,29.7,90,89,86,30.21,29.99,13,4,13,0.12
2013-1-7,50.7,46.3,42.1,47.9,42.7,38.9,92,87,85,30.18,29.90,18,5,18,0.27
2013-1-8,51.9,47.6,42.1,49.1,44.2,38.5,91,88,86,30.17,29.78,29,6,29,0.54
2013-1-9,51.8,40.4,33.2,47.6,37.2,30.0,92,88,82,29.96,29.66,28,6,28,0.52
2013-1-10,38.4,34.9,32.8,36.2,32.0,29.6,94,89,88,30.09,29.95,10,2,10,0.02
2013-1-11,39.6,31.4,24.6,34.2,27.3,22.3,94,85,58,30.31,30.09,11,1,11,0.00
2013-1-12,37.7,28.0,22.5,31.8,25.1,20.3,93,89,74,30.42,30.30,11,1,11,0.01
2013-1-13,35.6,25.5,18.8,30.0,22.7,17.1,93,89,74,30.49,30.41,5,0,5,0.00
2013-1-14,32.5,29.4,22.7,29.9,26.8,20.5,93,90,88,30.56,30.47,10,3,10,0.01
2013-1-15,37.1,33.4,32.0,34.9,30.4,28.8,94,89,88,30.67,30.55,8,1,8,0.01
2013-1-16,33.0,31.6,30.6,30.1,28.7,27.7,90,89,88,30.65,30.49,6,1,6,0.00
2013-1-17,32.3,30.8,29.0,29.7,28.1,26.2,90,90,89,30.50,30.29,7,1,7,0.00
2013-1-18,48.6,32.2,22.7,41.6,29.3,21.0,98,89,74,30.30,30.23,7,1,7,0.01
2013-1-19,34.1,31.3,29.2,31.6,28.5,26.4,91,89,88,30.35,30.29,8,2,8,0.00
2013-1-20,32.7,30.8,28.7,29.9,28.0,25.9,90,89,89,30.36,30.25,7,2,7,0.00
2013-1-21,45.2,31.9,24.5,37.1,28.2,22.4,94,87,64,30.27,30.11,11,2,11,0.01
2013-1-22,40.9,32.3,23.4,32.1,28.2,21.7,94,85,67,30.13,29.91,12,3,12,0.00
2013-1-23,36.4,35.4,34.1,34.0,32.2,29.0,93,88,76,30.17,29.84,15,4,15,0.14
2013-1-24,43.6,38.2,33.1,41.6,35.4,29.9,97,90,88,30.21,30.06,12,2,12,0.06
2013-1-25,49.9,43.4,35.9,47.4,40.3,32.5,94,89,87,30.07,29.92,14,4,14,0.05
2013-1-26,44.7,40.7,36.4,41.9,38.2,33.2,93,91,88,30.05,29.89,19,4,19,0.20
2013-1-27,40.9,39.2,37.2,38.9,36.9,34.5,93,92,90,30.10,30.01,17,5,17,0.06
2013-1-28,42.2,40.3,38.3,39.4,37.3,35.4,93,89,88,30.15,30.03,9,3,9,0.56
2013-1-29,47.1,44.3,41.2,44.6,41.5,37.9,93,90,88,30.41,30.14,16,4,16,0.21
2013-1-30,48.1,46.0,44.1,44.5,42.6,41.1,91,88,87,30.41,30.36,11,3,11,0.65
2013-1-31,48.3,44.9,37.6,46.4,42.1,34.4,93,90,87,30.42,30.31,11,3,11,0.03
2013-2-1,52.4,44.7,33.5,46.5,41.3,30.6,93,88,77,30.37,30.28,12,2,12,0.01
2013-2-2,43.3,37.4,32.5,40.2,34.5,29.6,94,89,88,30.33,30.23,6,1,6,0.00
2013-2-3,45.2,40.1,31.4,43.3,37.7,28.8,94,91,89,30.31,30.21,6,1,6,0.01
2013-2-4,50.9,45.1,40.8,45.5,42.0,37.8,93,89,78,30.22,29.90,13,2,13,0.00
2013-2-5,50.1,45.0,42.6,46.2,42.8,40.3,93,92,83,29.99,29.85,28,6,28,0.28
2013-2-6,47.9,44.8,41.1,43.9,41.8,39.0,93,89,82,30.05,29.78,25,7,25,0.19
2013-2-7,48.7,40.7,28.9,41.6,36.9,26.6,93,87,67,30.16,29.83,16,4,16,0.01
2013-2-8,46.0,36.5,27.3,42.1,32.8,24.8,93,87,74,30.29,30.16,14,3,14,0.01
2013-2-9,48.2,39.5,29.5,42.4,36.4,26.8,98,89,76,30.30,30.23,6,1,6,0.00
2013-2-10,45.8,41.0,34.4,40.4,37.5,32.0,97,87,75,30.34,30.29,13,3,13,0.00
2013-2-11,46.0,42.0,38.9,43.8,39.8,36.8,93,92,82,30.36,30.30,12,3,12,0.01
2013-2-12,51.6,46.6,42.7,48.1,43.8,39.8,93,90,85,30.42,30.35,19,5,19,0.00
2013-2-13,49.8,45.6,37.3,44.6,41.7,34.1,91,86,74,30.50,30.36,13,2,13,0.01
2013-2-14,47.1,41.8,34.5,44.2,38.1,31.0,92,87,86,30.54,30.49,6,1,6,0.02
2013-2-15,57.5,45.7,35.9,48.3,41.2,32.3,91,84,70,30.51,30.17,13,2,13,0.00
2013-2-16,51.4,42.8,34.0,46.8,39.0,30.5,92,86,73,30.24,30.17,23,4,23,0.11
2013-2-17,46.9,39.1,30.6,40.5,35.2,27.3,92,86,69,30.26,30.09,12,2,12,0.02
2013-2-18,45.7,40.0,35.5,39.6,35.4,32.0,92,84,71,30.09,29.72,22,4,22,0.07
2013-2-19,51.7,42.3,31.9,41.5,36.8,29.0,91,82,57,29.99,29.69,18,3,18,0.02
2013-2-20,45.2,37.4,28.3,39.8,34.0,25.3,91,87,76,30.06,29.97,17,3,17,0.10
2013-2-21,43.6,41.1,37.9,40.5,38.1,34.5,91,89,87,30.12,30.01,22,6,22,0.19
2013-2-22,46.2,41.5,35.2,43.3,38.8,32.6,91,90,84,30.10,29.79,32,8,32,0.61
2013-2-23,46.4,39.5,35.5,42.4,35.8,32.8,92,87,69,30.40,30.00,29,5,29,0.23
2013-2-24,47.6,42.4,36.9,40.6,37.0,34.1,91,82,71,30.40,29.97,21,6,21,0.00
2013-2-25,47.7,41.0,35.6,41.1,37.3,32.6,95,86,64,30.34,29.94,27,5,27,0.29
2013-2-26,47.2,40.0,31.4,40.1,34.9,28.3,91,82,68,30.36,30.21,22,4,22,0.01
2013-2-27,50.1,44.8,40.5,44.8,41.1,36.7,91,87,80,30.28,30.21,18,3,18,0.06
2013-2-28,53.9,49.2,44.1,51.0,45.9,40.1,91,88,85,30.36,30.16,20,5,20,0.17
2013-3-1,56.9,52.9,50.7,52.8,49.7,47.5,92,89,85,30.40,30.28,20,5,20,0.02
2013-3-2,54.3,46.8,35.7,49.6,43.3,33.3,92,88,82,30.29,30.10,23,4,23,0.03
2013-3-3,50.2,38.3,28.7,40.4,32.8,25.6,96,81,54,30.29,30.24,15,3,20,0.01
2013-3-4,57.1,38.3,24.2,38.5,28.2,21.1,91,72,25,30.27,29.89,18,2,18,0.00
2013-3-5,46.3,39.0,29.5,41.9,35.6,26.8,91,88,79,29.90,29.66,11,1,11,0.12
2013-3-6,43.6,41.9,40.2,40.9,38.8,36.8,91,89,86,29.90,29.55,13,3,13,0.28
2013-3-7,55.6,44.5,32.2,43.3,38.3,29.3,92,80,45,30.05,29.90,14,3,14,0.00
2013-3-8,52.4,40.1,28.9,43.1,35.3,25.8,91,83,68,30.22,30.05,21,3,21,0.00
2013-3-9,57.7,40.1,28.5,45.2,33.5,25.4,91,79,48,30.49,30.22,11,1,11,0.01
2013-3-10,45.7,39.6,30.3,42.9,36.4,27.3,92,88,86,30.50,30.40,8,1,8,0.05
2013-3-11,52.0,47.1,43.3,48.2,43.4,39.4,92,87,82,30.42,30.20,10,1,10,0.02
2013-3-12,54.9,51.9,49.0,50.0,48.0,45.3,90,86,80,30.20,30.11,22,7,22,0.08
2013-3-13,56.1,51.5,47.2,52.0,48.0,43.0,92,88,81,30.19,30.06,13,2,14,0.04
2013-3-14,55.5,50.0,46.8,51.2,45.6,42.5,91,85,74,30.17,30.01,19,4,19,0.01
2013-3-15,61.1,53.3,48.3,51.5,47.8,45.2,90,82,61,30.20,30.14,15,5,15,0.00
2013-3-16,49.2,45.3,38.6,45.6,42.1,36.1,91,88,81,30.15,29.96,24,6,24,0.18
2013-3-17,46.2,39.5,34.6,39.4,36.0,32.0,91,87,70,30.26,30.06,21,5,21,0.05
2013-3-18,52.2,42.0,31.6,43.3,36.3,29.0,91,82,50,30.24,30.18,18,5,18,0.07
2013-3-19,47.7,39.8,30.0,43.6,36.3,27.3,95,87,76,30.18,29.60,9,1,9,0.29
2013-3-20,52.1,45.6,36.7,49.3,42.4,34.2,91,89,82,30.10,29.42,31,9,31,0.67
2013-3-21,48.2,38.7,32.8,39.9,34.8,29.9,96,86,67,30.27,30.10,24,5,24,0.14
2013-3-22,46.4,37.6,31.7,37.8,32.7,29.1,91,83,59,30.38,30.26,25,4,25,0.01
2013-3-23,50.2,37.8,31.1,37.9,30.0,24.8,95,76,38,30.39,30.27,11,1,11,0.01
2013-3-24,56.0,42.5,30.2,38.7,33.7,27.6,92,74,41,30.28,30.08,13,2,13,0.00
2013-3-25,60.9,47.3,32.7,44.1,37.4,30.1,91,71,44,30.09,29.90,13,2,13,0.00
2013-3-26,59.5,50.0,42.9,46.2,43.5,40.2,90,79,55,30.00,29.93,13,2,13,0.01
2013-3-27,61.9,52.8,46.1,49.2,45.5,41.8,90,77,51,29.97,29.88,11,2,11,0.00
2013-3-28,62.7,53.3,47.0,52.1,46.2,40.8,90,78,45,30.11,29.96,14,2,14,0.28
2013-3-29,67.0,54.5,46.3,50.7,45.8,42.6,90,74,44,30.21,30.11,13,2,13,0.00
2013-3-30,70.6,54.8,38.4,49.5,43.9,35.1,90,69,44,30.21,30.00,17,5,17,0.00
2013-3-31,75.3,55.9,36.6,51.7,44.3,33.2,90,69,35,30.01,29.86,14,2,14,0.00
2013-4-1,67.6,53.2,41.9,51.9,46.2,38.3,92,79,48,30.15,29.97,18,3,18,0.00
2013-4-2,58.7,53.2,49.4,50.3,48.1,46.0,89,83,71,30.18,30.12,13,3,13,0.00
2013-4-3,65.2,53.8,42.3,51.9,46.5,39.1,92,77,53,30.17,29.90,8,1,8,0.00
2013-4-4,58.0,52.6,49.3,54.4,49.1,46.2,92,88,81,29.91,29.64,23,4,23,0.46
2013-4-5,56.9,52.1,48.6,51.8,48.9,45.1,90,89,82,29.88,29.73,21,7,21,0.93
2013-4-6,52.3,48.1,43.4,48.7,44.8,40.4,91,88,75,29.94,29.70,28,6,28,0.83
2013-4-7,50.4,45.1,40.9,46.9,41.9,37.8,94,88,80,29.92,29.44,26,7,26,0.58
2013-4-8,53.4,46.3,41.8,46.3,42.0,39.3,91,85,65,30.28,29.92,18,3,18,0.01
2013-4-9,54.7,47.3,38.9,46.5,42.3,35.8,91,83,71,30.33,30.19,11,3,11,0.00
2013-4-10,54.1,50.8,46.7,50.9,45.0,39.3,90,80,69,30.30,30.00,25,8,25,0.20
2013-4-11,56.2,47.3,35.9,44.7,39.5,32.7,91,76,46,30.32,30.18,22,5,22,0.00
2013-4-12,49.2,40.9,32.1,44.5,37.4,29.0,91,87,75,30.19,29.77,24,4,24,0.13
2013-4-13,49.3,42.2,36.7,43.4,38.5,34.3,91,87,75,30.03,29.85,24,7,24,0.06
2013-4-14,49.7,42.7,38.1,41.8,38.8,35.1,91,86,70,30.04,29.93,19,4,19,0.13
2013-4-15,55.7,43.6,34.5,42.5,36.2,31.0,91,77,46,30.17,29.94,21,4,21,0.26
2013-4-16,58.4,45.0,35.0,45.4,36.0,31.4,92,73,40,30.39,30.17,21,4,21,0.00
2013-4-17,56.9,44.0,30.8,45.6,36.7,27.7,90,77,52,30.47,30.39,21,3,21,0.01
2013-4-18,53.2,47.3,42.2,47.0,43.2,39.2,90,86,75,30.46,30.26,14,3,14,0.10
2013-4-19,55.9,51.1,48.7,51.5,47.2,45.2,89,87,75,30.26,30.08,21,5,21,0.23
2013-4-20,56.0,49.4,43.6,49.0,44.7,40.6,92,84,70,30.29,30.24,18,4,18,0.02
2013-4-21,56.7,47.4,41.6,49.1,42.4,38.0,90,83,59,30.33,30.21,20,4,20,0.05
2013-4-22,62.2,49.3,35.0,44.4,35.6,27.9,90,63,33,30.46,30.33,20,5,20,0.00
2013-4-23,65.0,49.4,29.3,42.6,30.6,23.8,90,55,25,30.40,30.17,19,4,19,0.00
2013-4-24,71.7,53.8,30.4,43.6,34.6,27.4,90,54,24,30.29,30.03,19,4,19,0.00
2013-4-25,74.3,55.3,36.0,49.1,41.5,33.1,89,64,34,30.15,30.02,20,3,20,0.00
2013-4-26,74.8,55.1,40.4,50.8,41.3,33.7,89,65,23,30.24,30.15,15,2,15,0.00
2013-4-27,57.8,49.3,37.1,49.4,44.0,34.1,89,82,63,30.25,30.18,11,2,11,0.03
2013-4-28,60.9,52.8,47.7,49.5,44.9,40.6,92,76,50,30.22,30.00,24,6,24,0.02
2013-4-29,54.6,47.8,38.1,47.0,38.4,31.1,89,71,44,30.20,29.99,29,8,29,0.05
2013-4-30,55.9,45.6,36.0,40.2,34.2,30.5,90,67,40,30.45,30.20,20,5,20,0.01
2013-5-1,65.8,48.6,28.2,41.1,32.4,25.6,92,59,28,30.54,30.45,15,3,15,0.00
2013-5-2,73.0,56.1,35.5,43.9,37.4,30.8,89,54,25,30.49,30.27,26,5,26,0.00
2013-5-3,74.0,61.6,49.5,47.2,41.3,35.9,69,49,28,30.32,30.15,23,9,23,0.00
2013-5-4,80.3,64.0,41.7,50.1,43.5,37.5,89,52,26,30.16,29.92,24,6,24,0.00
2013-5-5,86.4,65.2,40.9,50.9,42.5,32.6,88,51,15,29.94,29.69,22,4,22,0.00
2013-5-6,85.6,63.6,41.5,55.8,47.8,38.2,88,62,24,29.84,29.73,21,3,21,0.00
2013-5-7,72.8,58.7,46.9,56.7,50.4,42.8,87,75,54,30.02,29.84,16,4,16,0.00
2013-5-8,71.0,57.7,50.7,57.2,50.6,45.6,89,78,56,30.13,30.02,13,3,13,0.01
2013-5-9,75.8,59.5,45.6,56.2,49.1,41.3,88,72,39,30.20,30.07,18,4,18,0.00
2013-5-10,81.8,63.7,43.5,59.4,51.5,39.4,92,68,35,30.18,30.07,13,2,13,0.00
2013-5-11,84.3,66.1,52.3,60.5,54.7,48.5,88,70,32,30.18,29.97,15,3,15,0.00
2013-5-12,70.2,63.6,57.7,60.1,57.0,52.9,87,79,67,30.08,30.00,18,4,18,0.02
2013-5-13,63.2,56.1,40.8,57.5,50.4,37.6,89,81,66,30.20,29.96,33,7,33,0.14
2013-5-14,64.7,52.7,39.3,46.3,41.6,35.7,92,68,43,30.22,30.09,9,2,12,0.00
2013-5-15,57.6,50.5,39.5,52.1,46.2,35.8,92,85,72,30.12,30.00,13,3,13,0.03
2013-5-16,67.5,56.8,48.2,54.2,49.7,43.6,88,78,54,30.00,29.86,17,3,20,0.11
2013-5-17,62.2,54.4,48.1,53.8,48.4,44.4,89,80,58,30.08,29.95,20,5,20,0.09
2013-5-18,59.3,53.3,48.0,51.5,48.3,44.0,88,83,72,30.26,30.07,11,2,11,0.04
2013-5-19,65.2,55.5,45.3,52.0,47.5,42.0,88,76,47,30.39,30.26,18,4,18,0.03
2013-5-20,70.4,55.4,43.2,53.0,46.8,39.8,89,75,44,30.35,29.91,15,3,15,0.00
2013-5-21,53.9,48.5,44.6,48.6,43.9,41.1,92,84,67,29.93,29.79,25,4,25,0.28
2013-5-22,47.7,44.9,43.0,45.5,42.4,39.5,95,91,87,29.93,29.88,13,4,13,0.63
2013-5-23,51.4,47.4,43.6,49.1,45.7,42.1,95,94,91,29.98,29.92,15,3,15,0.58
2013-5-24,57.5,51.4,46.0,51.0,47.8,44.4,95,88,77,30.06,29.94,19,4,19,0.08
2013-5-25,60.7,53.8,46.2,52.3,48.4,44.6,95,83,63,30.05,29.93,16,3,16,0.00
2013-5-26,63.6,56.0,51.3,56.3,52.1,49.4,95,87,68,29.99,29.92,20,3,20,0.12
2013-5-27,60.6,55.3,51.5,58.1,52.2,48.9,94,89,82,29.95,29.69,22,4,22,0.45
2013-5-28,61.6,55.1,51.5,54.4,50.8,48.3,94,86,73,29.88,29.74,17,4,17,0.04
2013-5-29,59.2,53.9,50.2,53.8,49.5,47.3,95,86,68,30.01,29.63,26,5,26,0.42
2013-5-30,60.4,53.2,48.4,53.2,48.8,46.0,93,85,65,30.24,30.01,14,4,25,0.13
2013-5-31,65.4,56.1,47.6,51.8,46.2,43.3,90,71,49,30.32,30.22,14,2,14,0.00
2013-6-1,73.4,59.6,47.4,55.0,49.8,44.0,92,72,47,30.23,30.01,13,3,13,0.00
2013-6-2,69.5,60.3,52.1,53.8,50.4,47.7,88,71,48,30.08,30.02,18,6,18,0.00
2013-6-3,73.0,57.4,44.1,56.0,48.6,40.2,89,74,46,30.12,30.02,16,3,16,0.00
2013-6-4,80.4,62.5,41.0,57.4,49.4,37.7,92,66,36,30.10,29.97,18,4,18,0.00
2013-6-5,79.1,64.4,47.3,61.5,54.3,43.8,88,71,51,30.07,29.98,19,3,19,0.00
2013-6-6,80.8,63.2,49.3,60.9,51.6,41.6,88,69,31,30.05,29.97,21,4,21,0.00
2013-6-7,70.9,58.1,45.0,59.0,50.3,41.6,92,76,51,30.16,30.03,18,3,18,0.00
2013-6-8,74.5,58.9,40.7,55.8,48.1,37.4,89,70,44,30.18,30.06,18,4,18,0.00
2013-6-9,70.7,57.9,48.7,54.0,48.0,43.3,92,72,45,30.10,30.00,22,4,22,0.00
2013-6-10,68.1,53.8,38.0,50.9,44.6,34.8,89,73,46,30.04,29.89,18,4,18,0.00
2013-6-11,65.0,55.7,49.9,52.9,48.3,44.7,88,77,54,30.12,29.97,22,4,22,0.04
2013-6-12,61.3,54.3,46.9,55.8,49.1,43.2,92,83,65,30.15,30.11,18,3,18,0.17
2013-6-13,62.6,56.0,50.6,57.4,50.7,46.3,89,82,67,30.26,30.12,16,3,16,0.22
2013-6-14,65.5,56.9,50.5,53.2,50.3,46.8,89,79,60,30.26,30.00,15,3,15,0.00
2013-6-15,78.8,62.0,41.3,59.1,51.3,37.4,89,70,46,30.00,29.88,9,2,13,0.00
2013-6-16,71.4,60.4,48.5,59.7,53.2,44.6,88,78,62,30.09,29.99,13,2,13,0.00
2013-6-17,76.7,63.0,54.8,57.4,54.0,47.5,88,74,40,30.09,29.90,23,3,23,0.02
2013-6-18,68.7,58.2,49.1,55.3,50.0,44.5,89,75,49,29.97,29.90,20,3,20,0.01
2013-6-19,65.8,57.9,49.6,56.2,50.7,45.9,88,78,56,30.04,29.92,19,3,19,0.07
2013-6-20,62.6,57.3,52.8,55.6,51.7,49.1,88,82,69,30.12,30.00,20,4,20,0.05
2013-6-21,65.3,57.8,52.3,58.6,52.8,47.3,88,83,73,30.16,30.11,13,2,13,0.12
2013-6-22,78.3,62.3,47.2,58.4,51.2,42.6,88,70,38,30.11,29.82,14,2,14,0.00
2013-6-23,68.7,62.4,58.0,63.0,57.3,53.5,87,84,73,29.83,29.60,19,1,19,0.35
2013-6-24,67.3,60.0,55.9,58.1,55.0,52.2,88,84,70,29.68,29.57,18,4,18,0.28
2013-6-25,69.6,60.5,55.8,60.3,55.4,50.6,88,83,69,29.83,29.65,22,4,22,0.22
2013-6-26,69.6,62.6,56.9,62.3,57.4,52.1,88,83,68,30.03,29.82,16,3,22,0.03
2013-6-27,72.5,65.0,59.3,65.1,59.7,53.8,88,83,73,30.16,30.00,11,2,12,0.19
2013-6-28,88.8,72.8,62.1,69.1,62.9,56.5,87,73,44,30.15,30.00,17,3,17,0.00
2013-6-29,86.5,72.4,60.1,66.1,61.3,55.6,87,70,46,30.09,29.95,10,2,10,0.00
2013-6-30,92.1,75.5,56.4,69.8,63.0,51.3,87,68,44,29.98,29.80,13,3,13,0.00
2013-7-1,90.8,73.4,59.5,71.8,63.4,54.7,87,72,49,30.02,29.89,16,3,16,0.00
2013-7-2,81.7,68.3,55.0,65.0,58.4,50.6,87,72,51,30.08,30.01,16,4,16,0.00
2013-7-3,79.3,63.8,49.5,59.2,52.5,45.5,87,69,35,30.14,30.02,18,4,18,0.00
2013-7-4,71.0,59.3,45.9,57.0,50.7,41.7,87,75,54,30.12,30.03,19,3,19,0.00
2013-7-5,72.2,60.3,48.8,57.9,52.6,44.8,87,77,55,30.04,29.93,15,2,15,0.00
2013-7-6,77.7,61.7,45.9,60.0,52.6,41.6,90,74,46,29.97,29.83,18,4,18,0.00
2013-7-7,75.7,60.9,50.7,61.5,54.1,46.5,87,79,57,29.97,29.87,13,2,13,0.00
2013-7-8,77.8,63.3,51.0,61.5,55.3,47.0,87,76,54,30.09,29.97,18,3,18,0.00
2013-7-9,85.5,69.2,51.9,63.4,56.6,47.5,87,67,41,30.08,29.96,19,4,19,0.00
2013-7-10,74.5,61.1,48.1,55.9,49.8,43.0,87,69,36,30.07,29.95,21,4,21,0.00
2013-7-11,72.9,59.7,46.3,53.1,48.2,42.6,87,68,43,30.06,29.96,18,4,19,0.00
2013-7-12,70.7,56.9,42.3,53.7,48.2,38.5,88,74,49,30.11,29.99,14,2,14,0.00
2013-7-13,76.8,60.5,38.6,54.2,46.7,34.8,92,65,31,30.17,30.05,20,4,20,0.00
2013-7-14,82.3,65.2,43.9,54.9,48.0,40.3,88,58,29,30.10,29.96,21,4,21,0.00
2013-7-15,81.8,65.3,43.4,55.6,47.9,39.8,88,59,28,30.02,29.82,20,5,21,0.00
2013-7-16,86.2,69.3,48.4,61.7,55.1,44.6,87,63,38,29.91,29.75,19,3,19,0.00
2013-7-17,73.7,63.3,55.7,59.0,56.0,51.1,87,78,57,30.18,29.91,15,4,15,0.00
2013-7-18,76.8,61.6,47.1,61.5,53.9,43.1,89,77,57,30.21,30.08,16,3,16,0.00
2013-7-19,79.6,62.5,46.6,63.2,54.6,42.6,87,77,55,30.15,30.00,19,4,19,0.00
2013-7-20,77.6,62.3,50.3,62.3,54.3,46.0,89,76,50,30.08,29.94,16,3,16,0.00
2013-7-21,78.7,61.5,49.1,63.1,54.2,44.9,87,78,53,29.98,29.89,15,2,15,0.00
2013-7-22,75.7,63.1,53.1,63.0,56.2,48.4,89,79,63,30.05,29.95,14,3,14,0.00
2013-7-23,86.0,67.4,52.2,63.9,55.8,47.5,87,69,38,30.04,29.91,18,4,18,0.00
2013-7-24,85.3,67.1,50.1,62.6,55.2,45.9,87,68,43,30.05,29.94,20,3,20,0.00
2013-7-25,85.7,65.7,46.9,58.9,51.6,42.6,87,64,30,30.09,30.00,18,3,18,0.00
2013-7-26,83.5,64.9,45.6,60.0,49.4,41.7,87,62,28,30.14,30.05,22,4,22,0.00
2013-7-27,77.3,60.2,41.9,54.6,48.5,37.9,87,68,40,30.17,29.99,19,3,19,0.00
2013-7-28,67.5,57.6,45.0,55.3,50.3,41.1,87,77,63,30.03,29.96,11,2,11,0.00
2013-7-29,77.4,63.9,56.5,59.5,54.4,51.6,86,72,50,30.01,29.91,13,2,13,0.00
2013-7-30,78.9,62.9,53.8,61.3,55.3,49.7,87,77,53,30.13,30.01,13,2,13,0.00
2013-7-31,71.4,61.5,54.6,62.6,55.5,50.1,87,81,70,30.11,29.97,17,3,17,0.00
2013-8-1,66.9,60.1,54.9,57.4,53.9,49.4,87,80,68,30.08,30.03,13,3,14,0.01
2013-8-2,66.7,61.3,55.2,59.8,55.8,51.1,87,82,72,30.11,30.07,14,3,14,0.00
2013-8-3,73.7,65.6,57.9,60.5,57.6,54.1,87,76,61,30.10,30.00,18,4,18,0.00
2013-8-4,84.8,68.8,51.5,64.2,57.9,46.6,86,70,44,30.02,29.88,19,3,19,0.00
2013-8-5,86.0,67.4,51.5,63.6,56.0,47.4,87,69,43,30.01,29.89,17,3,17,0.00
2013-8-6,88.3,67.4,46.4,61.3,53.4,42.4,87,65,30,29.99,29.87,15,2,15,0.00
2013-8-7,85.5,65.9,51.5,60.8,54.2,46.8,87,69,37,30.02,29.91,19,4,19,0.00
2013-8-8,81.3,65.9,55.3,63.7,56.8,51.0,86,74,52,30.03,29.90,17,3,17,0.00
2013-8-9,80.1,63.4,50.3,62.7,55.5,45.5,86,77,50,29.94,29.82,14,2,14,0.00
2013-8-10,77.0,65.4,58.7,64.2,58.2,53.5,86,78,61,30.02,29.86,18,3,18,0.06
2013-8-11,72.5,62.8,56.3,60.0,56.1,51.0,86,79,64,30.05,29.97,13,2,13,0.00
2013-8-12,76.8,64.8,55.5,58.3,55.3,51.1,86,72,50,30.07,29.98,15,3,15,0.00
2013-8-13,83.2,64.8,45.4,57.3,51.4,41.3,87,66,32,30.09,29.89,12,2,12,0.00
2013-8-14,80.0,63.7,50.0,62.6,55.0,45.7,87,75,42,29.94,29.89,13,2,17,0.04
2013-8-15,71.7,65.7,61.4,66.5,60.5,55.4,86,83,81,29.97,29.90,10,1,10,0.05
2013-8-16,83.9,70.0,60.7,66.2,59.7,55.0,87,72,38,30.01,29.92,17,3,17,0.00
2013-8-17,78.0,65.9,54.6,62.0,57.6,49.9,87,76,52,30.07,30.00,13,2,13,0.00
2013-8-18,78.5,66.8,56.9,61.8,57.6,52.8,87,74,50,30.11,30.04,18,3,18,0.00
2013-8-19,79.1,64.0,49.7,59.9,54.1,44.6,87,72,48,30.10,30.03,20,3,20,0.00
2013-8-20,78.3,63.8,46.1,55.8,50.0,42.1,87,64,33,30.13,30.00,20,5,20,0.00
2013-8-21,83.7,67.6,46.1,55.7,50.5,41.8,87,58,35,30.03,29.86,19,5,19,0.00
2013-8-22,80.9,66.9,49.1,62.8,55.6,44.9,87,69,44,29.90,29.80,11,2,11,0.00
2013-8-23,73.2,64.9,58.6,59.0,56.8,54.0,86,76,58,29.90,29.84,13,2,13,0.00
2013-8-24,73.0,64.2,56.0,59.9,55.1,50.5,86,73,48,29.91,29.83,14,2,14,0.06
2013-8-25,66.5,58.9,46.1,59.6,52.9,41.5,87,81,72,29.92,29.86,8,1,8,0.00
2013-8-26,75.5,64.3,58.7,61.1,56.4,51.9,87,77,45,29.94,29.85,22,3,22,0.03
2013-8-27,80.0,67.6,58.4,64.4,59.1,52.8,87,75,52,29.94,29.77,11,2,11,0.02
2013-8-28,80.0,69.5,62.7,65.1,61.2,57.0,87,76,54,29.88,29.80,12,1,12,0.14
2013-8-29,76.2,67.3,63.2,67.4,61.9,57.6,88,83,69,30.02,29.81,20,2,20,0.16
2013-8-30,78.1,67.8,59.6,64.7,59.7,56.1,93,76,52,30.12,30.02,14,2,14,0.08
2013-8-31,83.9,66.2,48.9,64.1,57.6,45.9,93,76,50,30.04,29.79,12,2,12,0.00
2013-9-1,82.1,66.0,53.2,63.7,57.2,49.6,92,76,48,29.88,29.77,17,2,17,0.00
2013-9-2,78.8,67.9,56.6,63.9,59.9,54.3,92,77,56,29.91,29.84,17,2,17,0.00
2013-9-3,75.8,65.6,59.5,64.6,60.1,55.6,92,83,58,29.99,29.89,17,2,17,0.37
2013-9-4,71.6,62.8,55.1,66.4,59.3,51.9,93,89,78,30.03,29.96,9,1,9,0.13
2013-9-5,68.1,63.3,59.7,63.7,60.2,56.5,93,90,84,30.01,29.92,17,5,17,0.31
2013-9-6,66.8,64.0,60.1,64.2,61.6,57.3,94,92,88,30.10,30.01,11,3,12,3.60
2013-9-7,75.3,65.3,57.9,64.5,60.1,55.0,94,84,65,30.09,29.96,17,3,17,0.01
2013-9-8,80.5,65.9,53.5,66.3,59.5,50.3,93,81,54,30.08,29.97,15,2,15,0.00
2013-9-9,78.3,65.8,57.5,67.6,61.0,54.6,93,85,68,30.04,29.91,16,3,16,0.00
2013-9-10,81.9,67.7,55.3,68.1,61.7,52.5,93,82,62,29.94,29.81,15,3,15,0.00
2013-9-11,91.3,70.4,51.5,69.4,61.6,48.4,93,77,46,29.92,29.82,11,1,11,0.00
2013-9-12,81.2,65.5,59.5,69.9,61.3,56.5,93,87,68,29.98,29.86,11,1,11,0.00
2013-9-13,69.3,62.5,58.6,64.6,59.6,55.3,94,90,84,29.95,29.84,8,1,8,0.01
2013-9-14,72.5,65.3,59.8,65.9,62.0,56.8,94,89,78,29.85,29.70,12,2,12,0.00
2013-9-15,65.5,61.7,56.5,63.4,59.0,53.5,94,91,88,29.83,29.69,9,1,9,0.03
2013-9-16,67.3,61.3,55.0,62.7,58.9,52.1,94,92,84,29.93,29.83,13,2,13,0.10
2013-9-17,66.1,56.1,47.8,59.6,52.5,45.0,94,88,65,29.96,29.84,12,1,15,0.03
2013-9-18,69.5,57.4,47.5,58.4,51.2,44.6,94,81,54,30.06,29.96,11,1,11,0.01
2013-9-19,78.7,57.3,39.4,58.3,49.3,36.8,94,78,44,30.02,29.75,13,1,13,0.01
2013-9-20,71.0,55.9,45.0,58.5,51.6,42.2,94,86,59,29.76,29.59,23,2,23,0.05
2013-9-21,68.3,57.5,48.9,60.5,53.8,45.7,93,88,68,29.72,29.64,13,1,13,0.14
2013-9-22,60.7,56.4,54.3,58.1,53.8,51.3,94,91,85,29.78,29.58,27,5,27,0.48
2013-9-23,62.4,55.9,49.1,58.2,53.2,45.3,93,91,84,29.97,29.78,15,3,15,0.19
2013-9-24,62.9,52.6,47.5,55.1,49.2,44.3,93,88,68,29.96,29.82,19,2,19,0.05
2013-9-25,57.4,52.0,45.6,52.7,48.9,42.8,94,89,82,30.02,29.84,14,2,14,0.06
2013-9-26,64.9,51.9,42.3,55.5,47.3,39.9,94,85,62,30.14,30.02,9,1,9,0.01
2013-9-27,55.1,50.9,43.2,52.7,48.0,40.5,93,90,89,30.13,29.86,14,2,14,0.42
2013-9-28,61.3,56.0,52.1,59.3,53.6,49.9,94,92,89,29.86,29.39,34,6,34,1.89
2013-9-29,55.4,53.3,50.6,53.7,51.3,48.4,94,93,89,29.60,29.22,32,6,32,1.00
2013-9-30,57.7,52.2,47.4,54.5,49.9,45.5,97,92,84,29.95,29.50,18,5,18,0.58
2013-10-1,57.7,50.9,46.3,53.2,48.3,43.8,97,91,79,30.15,29.92,14,2,14,0.16
2013-10-2,54.2,48.8,46.3,51.6,46.6,43.8,94,92,90,30.16,30.04,14,2,14,0.04
2013-10-3,56.3,49.1,40.1,51.2,45.8,37.8,95,89,72,30.42,30.16,10,1,10,0.02
2013-10-4,67.7,47.6,36.6,53.4,43.0,34.2,95,85,54,30.46,30.33,8,0,8,0.21
2013-10-5,69.6,51.4,37.8,56.4,45.9,35.7,97,83,51,30.35,30.11,11,1,11,0.00
2013-10-6,72.8,54.0,36.9,54.4,46.5,34.8,94,78,47,30.12,29.90,20,2,20,0.01
2013-10-7,58.6,53.4,50.4,53.9,50.7,47.6,94,91,79,30.08,29.92,18,2,18,0.17
2013-10-8,56.7,48.4,39.8,52.1,46.0,37.4,97,91,79,30.09,29.94,23,2,23,0.18
2013-10-9,57.9,45.4,36.3,50.4,42.2,34.1,97,89,71,30.13,29.96,14,1,14,0.01
2013-10-10,56.2,49.5,43.7,53.6,47.2,41.2,97,92,90,30.07,29.94,11,1,11,0.05
2013-10-11,54.7,50.7,47.8,52.4,48.2,45.0,94,91,87,30.13,30.06,5,0,5,0.02
2013-10-12,55.5,49.4,42.3,50.5,46.5,40.1,95,90,80,30.18,30.05,11,1,11,0.14
2013-10-13,59.1,47.3,37.9,51.8,43.8,35.6,97,88,70,30.33,30.17,14,2,14,0.01
2013-10-14,60.3,45.3,35.6,52.0,41.8,33.2,97,88,71,30.39,30.32,13,2,13,0.01
2013-10-15,64.3,46.8,36.2,53.2,42.0,34.1,94,85,50,30.36,30.15,13,1,13,0.00
2013-10-16,53.9,46.6,38.2,51.7,44.4,35.8,97,92,90,30.17,30.12,11,1,11,0.01
2013-10-17,59.9,48.9,39.9,54.0,46.3,37.5,97,91,80,30.24,30.17,11,2,11,0.00
2013-10-18,59.2,46.7,38.0,54.2,44.0,35.6,95,90,83,30.22,30.11,11,1,11,0.01
2013-10-19,56.4,46.6,41.4,53.7,44.1,39.3,94,91,88,30.16,30.11,10,1,10,0.01
2013-10-20,49.9,46.5,44.1,48.5,44.3,41.6,97,92,90,30.17,30.10,9,2,9,0.01
2013-10-21,56.5,47.9,44.1,52.7,45.5,41.6,95,91,86,30.13,30.04,11,3,11,0.00
2013-10-22,64.8,50.5,41.6,56.8,47.4,39.6,95,89,75,30.08,29.98,9,2,9,0.01
2013-10-23,61.9,47.1,39.6,55.4,44.3,37.2,96,90,77,30.02,29.95,8,1,8,0.01
2013-10-24,55.9,39.8,42.5,54.0,20.1,-99.9,95,75,90,30.11,30.00,7,-177,7,0.00
2013-10-25,56.4,43.0,48.6,53.1,23.5,-99.9,97,75,87,30.26,30.11,11,-172,11,0.01
2013-10-26,53.3,40.4,45.4,49.2,19.4,-99.9,95,74,86,30.29,30.16,13,-187,13,0.00
2013-10-27,54.9,40.1,44.9,51.5,17.5,-99.9,95,71,79,30.17,29.85,22,-197,22,0.00
2013-10-28,59.9,41.8,34.8,46.2,19.4,-99.9,96,62,52,29.92,29.81,15,-145,15,0.11
2013-10-29,59.9,35.0,28.8,46.3,13.0,-99.9,95,67,46,30.03,29.92,9,-165,9,0.00
2013-10-30,55.7,37.2,28.9,47.0,15.6,-99.9,95,69,71,30.16,30.03,11,-177,11,0.04
2013-10-31,55.9,50.6,47.3,53.4,48.4,44.8,97,92,89,30.25,30.11,12,1,12,0.09
2013-11-1,61.2,51.5,45.5,55.0,48.4,43.0,97,89,78,30.27,29.86,19,1,19,0.05
2013-11-2,53.9,48.7,39.5,51.0,46.0,37.8,95,90,76,29.98,29.60,26,5,26,0.50
2013-11-3,51.1,43.2,31.2,46.4,40.1,29.3,95,89,73,30.12,29.97,20,2,20,0.03
2013-11-4,48.2,41.9,30.5,45.9,39.5,28.6,95,91,90,30.16,30.04,7,0,7,0.14
2013-11-5,52.4,48.2,40.1,50.6,45.7,37.3,94,91,89,30.23,30.03,10,1,10,0.08
2013-11-6,50.4,46.0,39.9,48.6,43.6,37.2,95,91,89,30.29,30.03,6,0,6,0.36
2013-11-7,54.7,49.7,47.2,52.5,47.5,44.7,95,92,89,30.07,29.76,32,6,32,0.51
2013-11-8,54.4,47.2,39.2,50.2,44.9,36.5,95,92,82,30.16,30.05,10,2,10,0.01
2013-11-9,46.3,42.1,35.7,44.9,39.9,33.3,97,92,90,30.12,30.05,7,0,7,0.02
2013-11-10,53.0,47.2,42.4,50.1,45.0,40.1,97,92,88,30.09,30.04,11,1,11,0.00
2013-11-11,57.3,47.8,42.5,52.9,45.0,39.8,97,90,83,30.14,29.99,5,1,8,0.00
2013-11-12,57.2,50.6,43.6,54.6,48.3,40.8,95,92,89,30.39,30.03,13,2,13,0.07
2013-11-13,53.7,47.3,40.9,52.0,44.7,38.2,94,91,89,30.45,30.30,6,1,6,0.01
2013-11-14,51.3,45.0,40.6,49.1,42.9,37.9,97,92,89,30.30,30.08,8,1,8,0.04
2013-11-15,48.2,45.6,43.4,46.7,43.7,40.7,95,93,90,29.98,29.45,23,6,23,0.32
2013-11-16,46.9,44.0,40.9,44.8,42.0,39.4,95,93,88,29.81,29.46,21,3,21,0.08
2013-11-17,49.7,46.8,42.4,48.0,44.5,40.5,95,92,89,29.92,29.81,16,3,16,0.21
2013-11-18,51.7,49.8,48.2,49.5,47.6,45.2,97,92,89,29.91,29.61,19,4,19,0.48
2013-11-19,52.2,44.6,34.0,50.2,41.9,31.4,95,90,80,30.02,29.62,16,3,16,0.08
2013-11-20,42.6,35.3,27.4,34.3,30.8,25.8,95,84,62,30.46,30.02,19,4,19,0.00
2013-11-21,43.9,30.3,20.8,35.2,26.5,19.6,100,87,56,30.61,30.46,12,1,12,0.01
2013-11-22,45.6,29.9,19.9,37.4,27.1,18.9,96,90,66,30.60,30.42,6,0,6,0.00
2013-11-23,45.3,30.9,23.0,37.6,28.4,21.5,95,91,73,30.43,30.18,5,0,5,0.01
2013-11-24,50.2,32.8,22.9,38.7,29.4,21.4,95,88,59,30.25,30.15,4,0,4,0.01
2013-11-25,52.1,35.4,26.3,39.3,30.9,24.8,100,85,54,30.32,30.25,7,1,7,0.00
2013-11-26,48.2,37.9,26.2,40.8,33.6,24.4,95,85,60,30.26,30.06,10,1,10,0.01
2013-11-27,55.0,40.4,30.4,45.5,37.3,27.9,96,89,70,30.06,29.93,5,0,5,0.00
2013-11-28,55.4,35.7,27.3,42.8,32.0,25.3,97,87,59,30.19,30.01,6,0,6,0.01
2013-11-29,44.4,37.4,27.7,42.1,35.2,25.7,95,92,89,30.33,30.18,6,0,6,0.01
2013-11-30,49.0,45.3,40.9,47.4,43.0,38.2,97,92,89,30.35,30.14,11,2,11,0.23
2013-12-1,55.8,51.1,45.2,53.6,48.8,43.0,94,92,89,30.14,29.86,20,6,20,0.76
2013-12-2,45.1,38.4,34.6,43.2,36.0,32.0,95,91,75,30.03,29.88,18,2,18,0.17
2013-12-3,39.7,33.6,24.2,35.0,30.5,22.8,95,89,73,30.29,30.03,12,3,15,0.00
2013-12-4,33.8,25.5,20.3,32.3,24.0,19.1,96,94,91,30.34,30.28,4,0,4,0.00
2013-12-5,30.0,23.9,18.5,29.0,22.7,17.6,96,95,93,30.32,30.15,5,0,5,0.01
2013-12-6,33.9,27.8,23.5,25.9,19.3,11.0,96,72,54,30.15,30.01,15,2,15,0.00
2013-12-7,29.6,21.0,10.3,15.0,11.8,8.7,94,69,46,30.43,30.14,10,2,10,0.00
2013-12-8,31.5,18.5,8.6,20.6,15.2,7.2,96,88,62,30.59,30.43,7,0,7,0.00
2013-12-9,27.9,23.4,12.2,26.1,21.4,11.0,96,92,87,30.59,30.49,10,2,10,0.00
2013-12-10,33.4,31.1,27.2,31.1,29.0,26.0,97,92,90,30.51,30.39,5,0,5,0.01
2013-12-11,36.1,32.3,27.8,34.0,30.0,25.8,97,91,91,30.40,30.16,6,0,6,0.01
2013-12-12,39.7,33.7,27.5,37.3,31.9,25.7,97,93,90,30.17,30.06,11,2,11,0.16
2013-12-13,47.1,42.5,38.6,45.6,40.0,35.9,95,91,90,30.42,30.17,10,1,10,0.01
2013-12-14,44.2,40.3,35.8,42.9,38.0,33.4,96,92,90,30.43,30.31,11,2,11,0.00
2013-12-15,48.4,43.4,40.6,47.0,41.4,38.2,97,92,90,30.46,30.36,11,2,11,0.00
2013-12-16,44.2,42.0,39.8,41.9,39.6,37.3,96,91,89,30.47,30.24,11,1,11,0.01
2013-12-17,41.2,38.4,35.2,39.0,36.1,32.8,97,92,90,30.24,30.14,8,1,8,0.01
2013-12-18,45.7,38.0,28.9,43.8,35.8,27.6,97,92,83,30.15,30.03,16,1,16,0.00
2013-12-19,38.7,32.6,28.0,34.7,30.9,26.7,96,94,77,30.32,30.12,8,2,9,0.00
2013-12-20,42.3,35.5,30.1,39.9,33.4,28.1,96,92,90,30.20,29.80,15,4,15,0.25
2013-12-21,48.9,44.1,39.8,47.5,41.9,37.1,96,92,90,30.18,29.88,10,2,10,0.06
2013-12-22,50.2,47.6,45.0,48.8,45.5,42.6,95,92,90,30.32,30.17,10,3,12,0.03
2013-12-23,50.4,46.1,32.8,48.3,44.0,30.9,100,92,86,30.52,30.22,21,4,21,0.24
2013-12-24,47.7,38.3,32.2,44.7,35.9,30.0,97,91,79,30.60,30.50,12,1,12,0.01
2013-12-25,36.9,33.8,31.3,35.1,31.7,29.1,97,92,91,30.50,30.38,6,1,6,0.01
2013-12-26,44.5,33.5,29.5,43.4,31.7,27.6,97,93,91,30.39,30.20,5,0,5,0.00
2013-12-27,40.0,34.9,27.8,38.1,32.9,26.0,97,92,91,30.37,30.15,12,1,12,0.02
2013-12-28,45.5,39.0,31.7,43.9,37.2,30.4,97,93,91,30.50,30.37,11,1,11,0.00
2013-12-29,38.9,36.5,34.1,37.3,34.4,32.0,97,92,91,30.46,30.29,6,0,6,0.01
2013-12-30,42.9,38.9,36.3,41.9,37.3,34.4,97,94,92,30.30,30.14,11,2,11,0.00
2013-12-31,46.7,43.3,39.5,45.6,41.9,38.5,100,95,91,30.36,30.19,8,1,8,0.01
2014-1-1,46.8,41.1,34.4,45.7,39.3,32.9,99,93,91,30.36,30.23,7,1,7,0.01
2014-1-2,48.1,43.7,40.0,44.1,41.4,37.6,97,92,82,30.23,29.96,14,3,14,0.13